Location: Unspecified
(17.6330°N, 0.0000°E)
Time: 15:30:23
(UTC+00:00)

Courier 1B Rocket - Pass Details

Date: 02 July 2019
Orbit: 920 x 1202 km, 28.2° (Epoch: 16 July)

Event Time Altitude Azimuth Distance (km) Brightness Sun altitude
Exits shadow 01:17:35 27° 38° (NE) 2,031 7.0 -45.5°
Drops below altitude 10° 01:21:13 10° 59° (ENE) 2,992 8.0 -45.1°
Sets 01:24:09 0° 67° (ENE) 3,910 8.6 -44.8°
